Weather History for Key West NAF, FL

Change the Weather History Date:

Wednesday, January 23, 2013

  Actual Average Record
Temperature  
Mean Temperature 70 °F -  
Max Temperature 75 °F 74 °F 84 °F (1952)
Min Temperature 66 °F 64 °F 48 °F (2009)
Cooling Degree Days 6    
Growing Degree Days 20 (Base 50)    
Moisture  
Dew Point 58 °F    
Average Humidity 66    
Maximum Humidity 76    
Minimum Humidity 54    
Precipitation  
Precipitation 0.00 in - - ()
Sea Level Pressure  
Sea Level Pressure 30.22 in    
Wind  
Wind Speed 12 mph (NE)    
Max Wind Speed 16 mph    
Max Gust Speed 23 mph    
Visibility 10 miles    
Events      
Averages and records for this station are not official NWS values.
T = Trace of Precipitation, MM = Missing Value Source: NWS Daily Summary

Daily Weather History Graph

Daily Weather History Graph

Search for Another Location

Airport:

Trip Planner

Search our weather history database for the weather conditions in past years. The results will help you decide how hot, cold, wet, or windy it might be!

Date:

Astronomy

Jan. 23, 2013 Rise Set
Actual Time 7:11 AM EST 6:05 PM EST
Civil Twilight 6:47 AM EST 6:30 PM EST
Nautical Twilight 6:19 AM EST 6:57 PM EST
Astronomical Twilight 5:52 AM EST 7:25 PM EST
Moon 3:19 PM EST 4:17 AM EST
Length of Visible Light 11h 42m
Length of Day
10h 54m
Waxing Gibbous, 89% of the Moon is Illuminated
Jan 23
Waxing Gibbous
Jan 26
Full
Feb 3
Last Quarter
Feb 10
New
Feb 17
First Quarter

Hourly Weather History & Observations

Time (EST) Temp. Dew Point Humidity Pressure Visibility Wind Dir Wind Speed Gust Speed Precip Events Conditions
12:53 AM 68.0 °F 57.9 °F 70% 30.19 in 10.0 mi NE 15.0 mph 23.0 mph N/A   Partly Cloudy
1:53 AM 68.0 °F 57.9 °F 70% 30.18 in 10.0 mi NE 13.8 mph - N/A   Mostly Cloudy
2:53 AM 66.9 °F 59.0 °F 76% 30.18 in 10.0 mi NE 9.2 mph - N/A   Partly Cloudy
3:53 AM 66.9 °F 57.9 °F 73% 30.18 in 10.0 mi NE 10.4 mph 19.6 mph N/A   Mostly Cloudy
4:53 AM 66.9 °F 59.0 °F 76% 30.17 in 10.0 mi NE 8.1 mph - N/A   Scattered Clouds
5:53 AM 66.9 °F 59.0 °F 76% 30.19 in 10.0 mi NE 9.2 mph 17.3 mph N/A   Overcast
6:53 AM 68.0 °F 59.0 °F 73% 30.21 in 10.0 mi NE 10.4 mph - N/A   Mostly Cloudy
7:53 AM 68.0 °F 59.0 °F 73% 30.22 in 10.0 mi NE 10.4 mph - N/A   Mostly Cloudy
8:53 AM 69.1 °F 57.9 °F 68% 30.24 in 10.0 mi NE 12.7 mph 20.7 mph N/A   Mostly Cloudy
9:53 AM 70.0 °F 57.9 °F 65% 30.25 in 10.0 mi NE 15.0 mph 20.7 mph N/A   Mostly Cloudy
10:53 AM 70.0 °F 57.0 °F 63% 30.26 in 10.0 mi NE 11.5 mph 19.6 mph N/A   Mostly Cloudy
11:53 AM 70.0 °F 57.9 °F 65% 30.25 in 10.0 mi NE 11.5 mph 18.4 mph N/A   Mostly Cloudy
12:53 PM 72.0 °F 57.2 °F 60% 30.24 in 10.0 mi NE 12.7 mph 19.6 mph N/A   Mostly Cloudy
1:53 PM 73.0 °F 57.2 °F 57% 30.22 in 10.0 mi ENE 13.8 mph 20.7 mph N/A   Mostly Cloudy
2:53 PM 75.0 °F 57.2 °F 54% 30.20 in 10.0 mi NE 16.1 mph 23.0 mph N/A   Scattered Clouds
3:53 PM 73.9 °F 57.2 °F 56% 30.20 in 10.0 mi NE 12.7 mph 19.6 mph N/A   Scattered Clouds
4:53 PM 71.1 °F 59.0 °F 66% 30.22 in 10.0 mi NE 8.1 mph 17.3 mph N/A   Scattered Clouds
5:53 PM 71.1 °F 54.0 °F 55% 30.23 in 10.0 mi NE 9.2 mph - N/A   Scattered Clouds
6:53 PM 69.1 °F 55.9 °F 63% 30.24 in 10.0 mi ENE 6.9 mph - N/A   Scattered Clouds
7:53 PM 69.1 °F 57.0 °F 65% 30.24 in 10.0 mi NE 9.2 mph - N/A   Mostly Cloudy
8:53 PM 69.1 °F 57.0 °F 65% 30.26 in 10.0 mi NE 8.1 mph - N/A   Scattered Clouds
9:53 PM 68.0 °F 55.9 °F 65% 30.27 in 10.0 mi NE 8.1 mph - N/A   Scattered Clouds
10:53 PM 68.0 °F 57.0 °F 68% 30.26 in 10.0 mi NE 6.9 mph - N/A   Clear
11:53 PM 66.9 °F 57.0 °F 70% 30.25 in 10.0 mi NE 6.9 mph - N/A   Clear